Terminal Aerodrome Forecast
Issued by NWS

Home | Current Version | Previous Version | Text Only | Print | Product List | Glossary On
Versions: 1 2 3 4 5 6 7 8 9 10 11 12 13 14 15 16 17 18 19 20 21 22 23 24 25 26 27 28 29 30 31 32 33 34 35 36 37 38 39 40 41 42 43 44 45 46 47 48 49 50
000
FTUS43 KMKX 290202 AAA
TAFENW
TAF AMD
KENW 290202Z 2902/2924 06010KT 6SM BR OVC006
     FM290400 05004KT 3SM BR VCSH OVC006
     FM290900 04004KT 3SM BR OVC006
     FM291400 04007KT P6SM BKN010
     FM291800 04009KT P6SM BKN020
     FM292100 04009KT P6SM SCT035=

USA.gov is the U.S. government's official web portal to all federal, state and local government web resources and services.